Time,TemperatureF,DewpointF,PressureIn,WindDirection,WindDirectionDegrees,WindSpeedMPH,WindSpeedGustMPH,Humidity,HourlyPrecipIn,Conditions,Clouds,dailyrainin,SoftwareType,DateUTC
2013-01-13 00:03:00,70.0,64.0,30.11,SE,129,0.0,0.0,82,0.00,,,0.00,,2013-01-13 05:03:00,
2013-01-13 00:12:00,70.0,64.0,30.11,SE,129,0.0,0.0,82,0.00,,,0.00,,2013-01-13 05:12:00,
2013-01-13 00:22:00,70.0,65.0,30.11,SE,129,0.0,0.0,83,0.00,,,0.00,,2013-01-13 05:22:00,
2013-01-13 00:32:00,69.0,64.0,30.11,ESE,113,0.0,3.0,83,0.00,,,0.00,,2013-01-13 05:32:00,
2013-01-13 00:42:00,69.0,64.0,30.11,ESE,113,0.0,3.0,83,0.00,,,0.00,,2013-01-13 05:42:00,
2013-01-13 00:53:00,69.0,64.0,30.11,ESE,113,0.0,0.0,83,0.00,,,0.00,,2013-01-13 05:53:00,
2013-01-13 01:03:00,68.0,63.0,30.10,ESE,113,0.0,0.0,83,0.00,,,0.00,,2013-01-13 06:03:00,
2013-01-13 01:12:00,67.0,62.0,30.10,ESE,113,0.0,0.0,84,0.00,,,0.00,,2013-01-13 06:12:00,
2013-01-13 01:22:00,67.0,62.0,30.10,ESE,113,0.0,0.0,84,0.00,,,0.00,,2013-01-13 06:22:00,
2013-01-13 01:32:00,67.0,62.0,30.10,ESE,113,0.0,1.0,84,0.00,,,0.00,,2013-01-13 06:32:00,
2013-01-13 01:42:00,67.0,62.0,30.10,ESE,113,0.0,1.0,84,0.00,,,0.00,,2013-01-13 06:42:00,
2013-01-13 01:52:00,67.0,62.0,30.10,ESE,113,0.0,0.0,84,0.00,,,0.00,,2013-01-13 06:52:00,
2013-01-13 02:02:00,66.0,61.0,30.10,ESE,113,0.0,0.0,84,0.00,,,0.00,,2013-01-13 07:02:00,
2013-01-13 02:12:00,66.0,61.0,30.10,ESE,113,0.0,0.0,84,0.00,,,0.00,,2013-01-13 07:12:00,
2013-01-13 02:22:00,66.0,61.0,30.10,ESE,113,0.0,0.0,84,0.00,,,0.00,,2013-01-13 07:22:00,
2013-01-13 02:32:00,66.0,61.0,30.10,ESE,113,0.0,0.0,85,0.00,,,0.00,,2013-01-13 07:32:00,
2013-01-13 02:42:00,66.0,61.0,30.10,ESE,113,0.0,0.0,85,0.00,,,0.00,,2013-01-13 07:42:00,
2013-01-13 02:53:00,66.0,61.0,30.09,ESE,113,0.0,4.0,85,0.00,,,0.00,,2013-01-13 07:53:00,
2013-01-13 03:02:00,66.0,61.0,30.09,ESE,113,0.0,4.0,85,0.00,,,0.00,,2013-01-13 08:02:00,
2013-01-13 03:12:00,66.0,61.0,30.09,ESE,113,0.0,4.0,85,0.00,,,0.00,,2013-01-13 08:12:00,
2013-01-13 03:22:00,66.0,61.0,30.09,ESE,113,0.0,4.0,85,0.00,,,0.00,,2013-01-13 08:22:00,
2013-01-13 03:32:00,66.0,61.0,30.09,East,101,0.0,5.0,85,0.00,,,0.00,,2013-01-13 08:32:00,
2013-01-13 03:42:00,66.0,61.0,30.09,East,101,0.0,5.0,85,0.00,,,0.00,,2013-01-13 08:42:00,
2013-01-13 03:53:00,66.0,61.0,30.09,East,98,0.0,4.0,85,0.00,,,0.00,,2013-01-13 08:53:00,
2013-01-13 04:02:00,66.0,61.0,30.09,ESE,111,0.0,5.0,85,0.00,,,0.00,,2013-01-13 09:02:00,
2013-01-13 04:12:00,66.0,61.0,30.08,ESE,113,0.0,0.0,85,0.00,,,0.00,,2013-01-13 09:12:00,
2013-01-13 04:22:00,66.0,61.0,30.08,ESE,113,0.0,0.0,85,0.00,,,0.00,,2013-01-13 09:22:00,
2013-01-13 04:32:00,65.0,60.0,30.08,ESE,113,0.0,4.0,85,0.00,,,0.00,,2013-01-13 09:32:00,
2013-01-13 04:42:00,65.0,60.0,30.08,ESE,113,0.0,4.0,85,0.00,,,0.00,,2013-01-13 09:42:00,
2013-01-13 04:52:00,65.0,60.0,30.07,ESE,110,0.0,1.0,85,0.00,,,0.00,,2013-01-13 09:52:00,
2013-01-13 05:02:00,66.0,61.0,30.07,ESE,110,0.0,4.0,85,0.00,,,0.00,,2013-01-13 10:02:00,
2013-01-13 05:12:00,66.0,61.0,30.07,ESE,110,0.0,4.0,85,0.00,,,0.00,,2013-01-13 10:12:00,
2013-01-13 05:22:00,66.0,61.0,30.07,SE,129,0.0,7.0,85,0.00,,,0.00,,2013-01-13 10:22:00,
2013-01-13 05:32:00,66.0,61.0,30.06,SE,128,2.0,7.0,85,0.00,,,0.00,,2013-01-13 10:32:00,
2013-01-13 05:42:00,66.0,61.0,30.06,SE,128,2.0,7.0,85,0.00,,,0.00,,2013-01-13 10:42:00,
2013-01-13 05:53:00,65.0,60.0,30.07,SE,136,1.0,5.0,85,0.00,,,0.00,,2013-01-13 10:53:00,
2013-01-13 06:02:00,65.0,60.0,30.07,SE,137,1.0,4.0,85,0.00,,,0.00,,2013-01-13 11:02:00,
2013-01-13 06:12:00,65.0,60.0,30.07,SE,137,1.0,4.0,85,0.00,,,0.00,,2013-01-13 11:12:00,
2013-01-13 06:22:00,65.0,60.0,30.07,SE,138,0.0,0.0,85,0.00,,,0.00,,2013-01-13 11:22:00,
2013-01-13 06:32:00,65.0,60.0,30.07,SE,134,0.0,3.0,85,0.00,,,0.00,,2013-01-13 11:32:00,
2013-01-13 06:42:00,65.0,60.0,30.07,SE,134,0.0,3.0,85,0.00,,,0.00,,2013-01-13 11:42:00,
2013-01-13 06:53:00,65.0,60.0,30.08,ESE,114,0.0,4.0,85,0.00,,,0.00,,2013-01-13 11:53:00,
2013-01-13 07:03:00,65.0,61.0,30.08,ESE,115,0.0,0.0,86,0.00,,,0.00,,2013-01-13 12:03:00,
2013-01-13 07:12:00,65.0,61.0,30.08,ESE,115,0.0,0.0,86,0.00,,,0.00,,2013-01-13 12:12:00,
2013-01-13 07:22:00,65.0,61.0,30.08,ESE,114,0.0,0.0,86,0.00,,,0.00,,2013-01-13 12:22:00,
2013-01-13 07:33:00,64.0,60.0,30.08,ESE,115,0.0,0.0,86,0.00,,,0.00,,2013-01-13 12:33:00,
2013-01-13 07:42:00,64.0,60.0,30.08,ESE,115,0.0,0.0,86,0.00,,,0.00,,2013-01-13 12:42:00,
2013-01-13 07:53:00,64.0,60.0,30.08,ESE,114,0.0,0.0,86,0.00,,,0.00,,2013-01-13 12:53:00,
2013-01-13 08:03:00,65.0,61.0,30.07,ESE,114,0.0,3.0,86,0.00,,,0.00,,2013-01-13 13:03:00,
2013-01-13 08:12:00,65.0,61.0,30.07,ESE,114,0.0,3.0,86,0.00,,,0.00,,2013-01-13 13:12:00,
2013-01-13 08:22:00,66.0,62.0,30.08,ESE,114,0.0,1.0,86,0.00,,,0.00,,2013-01-13 13:22:00,
2013-01-13 08:33:00,67.0,62.0,30.08,SE,128,4.0,7.0,85,0.00,,,0.00,,2013-01-13 13:33:00,
2013-01-13 08:42:00,67.0,62.0,30.08,SE,128,4.0,7.0,85,0.00,,,0.00,,2013-01-13 13:42:00,
2013-01-13 08:53:00,69.0,64.0,30.08,SSE,162,5.0,10.0,84,0.00,,,0.00,,2013-01-13 13:53:00,
2013-01-13 09:03:00,70.0,65.0,30.09,SSE,153,2.0,7.0,84,0.00,,,0.00,,2013-01-13 14:03:00,
2013-01-13 09:12:00,70.0,65.0,30.09,SSE,153,2.0,7.0,84,0.00,,,0.00,,2013-01-13 14:12:00,
2013-01-13 09:22:00,71.0,66.0,30.09,SSE,148,5.0,9.0,83,0.00,,,0.00,,2013-01-13 14:22:00,
2013-01-13 09:33:00,73.0,67.0,30.10,SSE,153,2.0,9.0,82,0.00,,,0.00,,2013-01-13 14:33:00,
2013-01-13 09:43:00,73.0,67.0,30.10,SSE,153,2.0,9.0,82,0.00,,,0.00,,2013-01-13 14:43:00,
2013-01-13 09:53:00,73.0,66.0,30.11,South,180,2.0,10.0,80,0.00,,,0.00,,2013-01-13 14:53:00,
2013-01-13 10:03:00,74.0,67.0,30.13,SSE,147,6.0,11.0,78,0.00,,,0.00,,2013-01-13 15:03:00,
2013-01-13 10:12:00,74.0,67.0,30.13,SSE,147,6.0,11.0,78,0.00,,,0.00,,2013-01-13 15:12:00,
2013-01-13 10:23:00,75.0,67.0,30.14,SE,146,5.0,10.0,77,0.00,,,0.00,,2013-01-13 15:23:00,
2013-01-13 10:33:00,76.0,67.0,30.14,SE,142,4.0,11.0,75,0.00,,,0.00,,2013-01-13 15:33:00,
2013-01-13 10:43:00,76.0,67.0,30.14,SE,142,4.0,11.0,75,0.00,,,0.00,,2013-01-13 15:43:00,
2013-01-13 10:53:00,77.0,67.0,30.14,SSE,154,5.0,9.0,72,0.00,,,0.00,,2013-01-13 15:53:00,
2013-01-13 11:03:00,78.0,67.0,30.14,SE,136,5.0,12.0,70,0.00,,,0.00,,2013-01-13 16:03:00,
2013-01-13 11:12:00,78.0,67.0,30.14,SE,136,5.0,12.0,70,0.00,,,0.00,,2013-01-13 16:12:00,
2013-01-13 11:23:00,78.0,67.0,30.14,East,96,3.0,9.0,68,0.00,,,0.00,,2013-01-13 16:23:00,
2013-01-13 11:33:00,78.0,67.0,30.14,ESE,107,1.0,8.0,68,0.00,,,0.00,,2013-01-13 16:33:00,
2013-01-13 11:43:00,78.0,67.0,30.14,ESE,107,1.0,8.0,68,0.00,,,0.00,,2013-01-13 16:43:00,
2013-01-13 11:53:00,79.0,67.0,30.14,SE,146,2.0,8.0,67,0.00,,,0.00,,2013-01-13 16:53:00,
2013-01-13 12:03:00,80.0,67.0,30.14,SE,125,1.0,7.0,65,0.00,,,0.00,,2013-01-13 17:03:00,
2013-01-13 12:12:00,80.0,67.0,30.14,SE,125,1.0,7.0,65,0.00,,,0.00,,2013-01-13 17:12:00,
2013-01-13 12:22:00,80.0,66.0,30.12,ESE,105,0.0,4.0,63,0.00,,,0.00,,2013-01-13 17:22:00,
2013-01-13 12:33:00,80.0,66.0,30.12,SE,138,3.0,7.0,63,0.00,,,0.00,,2013-01-13 17:33:00,
2013-01-13 12:42:00,80.0,66.0,30.12,SE,138,3.0,7.0,63,0.00,,,0.00,,2013-01-13 17:42:00,
2013-01-13 12:53:00,81.0,66.0,30.11,ENE,73,0.0,7.0,61,0.00,,,0.00,,2013-01-13 17:53:00,
2013-01-13 13:03:00,80.0,66.0,30.10,ESE,113,0.0,9.0,62,0.00,,,0.00,,2013-01-13 18:03:00,
2013-01-13 13:12:00,80.0,66.0,30.10,ESE,113,0.0,9.0,62,0.00,,,0.00,,2013-01-13 18:12:00,
2013-01-13 13:23:00,81.0,66.0,30.09,SSW,193,2.0,5.0,60,0.00,,,0.00,,2013-01-13 18:23:00,
2013-01-13 13:33:00,82.0,67.0,30.09,South,189,0.0,9.0,60,0.00,,,0.00,,2013-01-13 18:33:00,
2013-01-13 13:43:00,82.0,67.0,30.09,South,189,0.0,9.0,60,0.00,,,0.00,,2013-01-13 18:43:00,
2013-01-13 13:53:00,82.0,66.0,30.08,South,188,1.0,8.0,58,0.00,,,0.00,,2013-01-13 18:53:00,
2013-01-13 14:03:00,82.0,66.0,30.08,ESE,106,7.0,11.0,59,0.00,,,0.00,,2013-01-13 19:03:00,
2013-01-13 14:12:00,82.0,66.0,30.08,ESE,106,7.0,11.0,59,0.00,,,0.00,,2013-01-13 19:12:00,
2013-01-13 14:22:00,82.0,66.0,30.07,SSE,159,2.0,8.0,59,0.00,,,0.00,,2013-01-13 19:22:00,
2013-01-13 14:33:00,83.0,66.0,30.06,South,184,2.0,9.0,56,0.00,,,0.00,,2013-01-13 19:33:00,
2013-01-13 14:43:00,83.0,66.0,30.06,South,184,2.0,9.0,56,0.00,,,0.00,,2013-01-13 19:43:00,
2013-01-13 14:53:00,82.0,65.0,30.06,SSE,150,0.0,8.0,56,0.00,,,0.00,,2013-01-13 19:53:00,
2013-01-13 15:03:00,82.0,64.0,30.06,ESE,109,1.0,4.0,55,0.00,,,0.00,,2013-01-13 20:03:00,
2013-01-13 15:12:00,82.0,64.0,30.06,ESE,109,1.0,4.0,55,0.00,,,0.00,,2013-01-13 20:12:00,
2013-01-13 15:22:00,82.0,64.0,30.06,SE,128,3.0,7.0,55,0.00,,,0.00,,2013-01-13 20:22:00,
2013-01-13 15:33:00,82.0,64.0,30.06,ESE,117,0.0,6.0,54,0.00,,,0.00,,2013-01-13 20:33:00,
2013-01-13 15:43:00,82.0,64.0,30.06,ESE,117,0.0,6.0,54,0.00,,,0.00,,2013-01-13 20:43:00,
2013-01-13 15:53:00,82.0,64.0,30.07,SW,217,2.0,6.0,55,0.00,,,0.00,,2013-01-13 20:53:00,
2013-01-13 16:03:00,82.0,64.0,30.07,SSE,167,0.0,3.0,54,0.00,,,0.00,,2013-01-13 21:03:00,
2013-01-13 16:12:00,82.0,64.0,30.07,SSE,167,0.0,3.0,54,0.00,,,0.00,,2013-01-13 21:12:00,
2013-01-13 16:23:00,82.0,65.0,30.08,SSE,168,0.0,1.0,56,0.00,,,0.00,,2013-01-13 21:23:00,
2013-01-13 16:33:00,81.0,64.0,30.08,SSE,167,0.0,0.0,56,0.00,,,0.00,,2013-01-13 21:33:00,
2013-01-13 16:43:00,81.0,64.0,30.08,SSE,167,0.0,0.0,56,0.00,,,0.00,,2013-01-13 21:43:00,
2013-01-13 16:53:00,81.0,68.0,30.09,NNW,337,2.0,5.0,64,0.00,,,0.00,,2013-01-13 21:53:00,
2013-01-13 17:02:00,78.0,68.0,30.10,NW,322,3.0,8.0,72,0.00,,,0.00,,2013-01-13 22:02:00,
2013-01-13 17:12:00,78.0,68.0,30.10,NW,322,3.0,8.0,72,0.00,,,0.00,,2013-01-13 22:12:00,
2013-01-13 17:22:00,78.0,69.0,30.10,NW,308,2.0,7.0,73,0.00,,,0.00,,2013-01-13 22:22:00,
2013-01-13 17:33:00,77.0,68.0,30.10,NW,316,0.0,5.0,74,0.00,,,0.00,,2013-01-13 22:33:00,
2013-01-13 17:43:00,77.0,68.0,30.10,NW,316,0.0,5.0,74,0.00,,,0.00,,2013-01-13 22:43:00,
2013-01-13 17:53:00,77.0,69.0,30.11,NW,315,0.0,0.0,76,0.00,,,0.00,,2013-01-13 22:53:00,
2013-01-13 18:02:00,76.0,68.0,30.11,NW,316,0.0,0.0,77,0.00,,,0.00,,2013-01-13 23:02:00,
2013-01-13 18:12:00,76.0,68.0,30.11,NW,316,0.0,0.0,77,0.00,,,0.00,,2013-01-13 23:12:00,
2013-01-13 18:23:00,75.0,67.0,30.11,NW,316,0.0,1.0,77,0.00,,,0.00,,2013-01-13 23:23:00,
2013-01-13 18:33:00,75.0,67.0,30.11,NW,316,0.0,0.0,77,0.00,,,0.00,,2013-01-13 23:33:00,
2013-01-13 18:42:00,75.0,67.0,30.11,NW,316,0.0,0.0,77,0.00,,,0.00,,2013-01-13 23:42:00,
2013-01-13 18:53:00,74.0,66.0,30.10,NW,316,0.0,0.0,77,0.00,,,0.00,,2013-01-13 23:53:00,
2013-01-13 19:03:00,74.0,67.0,30.10,NW,315,0.0,0.0,78,0.00,,,0.00,,2013-01-14 00:03:00,
2013-01-13 19:12:00,74.0,67.0,30.10,NW,315,0.0,0.0,78,0.00,,,0.00,,2013-01-14 00:12:00,
2013-01-13 19:22:00,73.0,66.0,30.11,NW,315,0.0,0.0,80,0.00,,,0.00,,2013-01-14 00:22:00,
2013-01-13 19:33:00,72.0,66.0,30.10,NW,315,0.0,0.0,81,0.00,,,0.00,,2013-01-14 00:33:00,
2013-01-13 19:43:00,72.0,66.0,30.10,NW,315,0.0,0.0,81,0.00,,,0.00,,2013-01-14 00:43:00,
2013-01-13 19:53:00,72.0,66.0,30.10,NW,316,0.0,0.0,82,0.00,,,0.00,,2013-01-14 00:53:00,
2013-01-13 20:03:00,72.0,66.0,30.10,NW,315,0.0,0.0,82,0.00,,,0.00,,2013-01-14 01:03:00,
2013-01-13 20:12:00,72.0,66.0,30.10,NW,315,0.0,0.0,82,0.00,,,0.00,,2013-01-14 01:12:00,
2013-01-13 20:22:00,71.0,66.0,30.10,NW,316,0.0,0.0,83,0.00,,,0.00,,2013-01-14 01:22:00,
2013-01-13 20:32:00,71.0,65.0,30.10,NW,316,0.0,0.0,82,0.00,,,0.00,,2013-01-14 01:32:00,
2013-01-13 20:42:00,71.0,65.0,30.10,NW,316,0.0,0.0,82,0.00,,,0.00,,2013-01-14 01:42:00,
2013-01-13 20:53:00,71.0,66.0,30.10,NW,316,0.0,0.0,83,0.00,,,0.00,,2013-01-14 01:53:00,
2013-01-13 21:03:00,70.0,65.0,30.10,NW,315,0.0,0.0,83,0.00,,,0.00,,2013-01-14 02:03:00,
2013-01-13 21:12:00,70.0,65.0,30.11,NW,315,0.0,0.0,83,0.00,,,0.00,,2013-01-14 02:12:00,
2013-01-13 21:22:00,70.0,65.0,30.11,NW,315,0.0,0.0,83,0.00,,,0.00,,2013-01-14 02:22:00,
2013-01-13 21:33:00,72.0,65.0,30.11,SSE,164,2.0,7.0,80,0.00,,,0.00,,2013-01-14 02:33:00,
2013-01-13 21:42:00,72.0,65.0,30.11,SSE,164,2.0,7.0,80,0.00,,,0.00,,2013-01-14 02:42:00,
2013-01-13 21:53:00,72.0,65.0,30.11,SSE,155,0.0,5.0,78,0.00,,,0.00,,2013-01-14 02:53:00,
2013-01-13 22:03:00,72.0,65.0,30.11,SSE,155,0.0,4.0,78,0.00,,,0.00,,2013-01-14 03:03:00,
2013-01-13 22:12:00,72.0,65.0,30.11,SSE,155,0.0,4.0,78,0.00,,,0.00,,2013-01-14 03:12:00,
2013-01-13 22:22:00,72.0,65.0,30.11,SE,141,0.0,5.0,78,0.00,,,0.00,,2013-01-14 03:22:00,
2013-01-13 22:32:00,71.0,64.0,30.12,SE,141,0.0,4.0,79,0.00,,,0.00,,2013-01-14 03:32:00,
2013-01-13 22:42:00,71.0,64.0,30.12,SE,141,0.0,4.0,79,0.00,,,0.00,,2013-01-14 03:42:00,
2013-01-13 22:53:00,70.0,64.0,30.11,SE,139,1.0,5.0,80,0.00,,,0.00,,2013-01-14 03:53:00,
2013-01-13 23:02:00,70.0,64.0,30.12,SE,139,0.0,1.0,80,0.00,,,0.00,,2013-01-14 04:02:00,
2013-01-13 23:12:00,70.0,64.0,30.12,SE,139,0.0,1.0,80,0.00,,,0.00,,2013-01-14 04:12:00,
2013-01-13 23:22:00,69.0,63.0,30.13,SE,139,0.0,0.0,80,0.00,,,0.00,,2013-01-14 04:22:00,
2013-01-13 23:32:00,68.0,62.0,30.13,SE,139,0.0,0.0,81,0.00,,,0.00,,2013-01-14 04:32:00,
2013-01-13 23:42:00,68.0,62.0,30.13,SE,139,0.0,0.0,81,0.00,,,0.00,,2013-01-14 04:42:00,
2013-01-13 23:53:00,67.0,62.0,30.14,SE,139,0.0,0.0,83,0.00,,,0.00,,2013-01-14 04:53:00,